Location: Peach Mountain Observatory
(42.3967°N, 83.9367°W)
Time: 22:07:25
(UTC-04:00)

deb Explorer IX - Pass Details

Date: 20 January 2020
Orbit: 547 x 1100 km, 38.8° (Epoch: 06 April)

Event Time Altitude Azimuth Distance (km) Brightness Sun altitude
Rises 02:55:45 0° 266° (W) 3,894 - -55.0°
Reaches altitude 10° 02:58:36 10° 264° (W) 2,908 - -54.5°
Maximum altitude 03:05:40 65° 184° (S) 1,098 - -53.3°
Drops below altitude 10° 03:11:57 10° 104° (ESE) 2,603 - -52.3°
Exits shadow 03:13:53 - 102° (ESE) 3,283 ? -52.0°
Sets 03:14:23 0° 101° (ESE) 3,463 ? -51.9°
